Weather Roundup
Issued by NWS

Home | Current Version | Previous Version | Graphics & Text | Print | Product List | Glossary Off
Versions: 1 2 3 4 5 6 7 8 9 10 11 12 13 14 15 16 17 18 19 20 21 22 23 24 25 26 27 28 29 30 31 32 33 34 35 36 37 38 39 40 41 42 43 44 45 46 47 48 49 50

000
NZUS93 KARX 281210
HRRWXR

CURRENT HOURLY OBSERVATIONS ACROSS
MUCH OF THE UPPER MISSISSIPPI VALLEY
NATIONAL WEATHER SERVICE LA CROSSE WI
700 AM CDT THU MAY 28 2015


...SOUTHEAST MINNESOTA...


CITY           SKY/WX    TMP DP  RH WIND       PRES   REMARKS
ROCHESTER      SUNNY     61  56  83 S8        30.13R
ROCHESTER/MAYO FAIR      63  56  80 S6        30.11R
WINONA         SUNNY     61  59  94 CALM      30.11S
AUSTIN         SUNNY     57  55  94 S5        30.11S
ALBERT LEA     SUNNY     63  55  77 S5        30.11R
DODGE CENTER   SUNNY     63  57  82 S6        30.11R
PRESTON        SUNNY     61  55  82 SW7       30.13S
OWATONNA       SUNNY     64  54  68 S9        30.09R
FARIBAULT      SUNNY     63  55  77 S6        30.09R
$$

...ELSEWHERE IN MINNESOTA...


CITY           SKY/WX    TMP DP  RH WIND       PRES   REMARKS
MINNEAPOLIS    MOSUNNY   64  56  75 CALM      30.06R
INTNL FALLS    PTSUNNY   51  47  86 SE8       30.02F
DULUTH         MOSUNNY   46  40  79 E14       30.11S
RED WING       SUNNY     63  59  88 CALM      30.08R
REDWOOD FALLS  MOSUNNY   62  52  69 S8        30.03R
MANKATO        SUNNY     63  54  72 S7        30.07S
WORTHINGTON    MOSUNNY   63  48  59 S10       30.07R
FAIRMONT       SUNNY     59  52  77 S8        30.08R
$$

...SOUTHWEST WISCONSIN...


CITY           SKY/WX    TMP DP  RH WIND       PRES   REMARKS
LA CROSSE      SUNNY     63  59  87 SE5       30.11S
PRAIRIE DU CHI SUNNY     59  57  91 CALM      30.14S
BOSCOBEL       FOG       57  57 100 CALM      30.15R VSB<1/4
LONE ROCK      SUNNY     61  58  90 CALM      30.16S
PLATTEVILLE    SUNNY     62  58  87 SE7       30.17R
FORT MC COY    SUNNY     56  54  94 CALM      30.13F
CAMP DOUGLAS   SUNNY     64  64 100 CALM      30.13S
VIROQUA        FAIR      62  58  86 S3        30.15R
WIS DELLS      SUNNY     65  56  73 W3        30.15S
$$

...ELSEWHERE IN WISCONSIN...


CITY           SKY/WX    TMP DP  RH WIND       PRES   REMARKS
MILWAUKEE      MOSUNNY   64  57  78 SW3       30.17S
MADISON        MOSUNNY   63  58  83 S5        30.16R
GREEN BAY      SUNNY     61  57  87 CALM      30.15S
EAU CLAIRE     SUNNY     59  55  87 CALM      30.09R
BLACK RVR FLS  FAIR      56  56 100 CALM      30.12S
MEDFORD        SUNNY     56  55  97 CALM      30.13F
WAUSAU         SUNNY     57  56  96 E5        30.13S
WIS RAPIDS     SUNNY     59  56  89 CALM      30.14F
MARSHFIELD     SUNNY     59  56  89 CALM      30.13S
RICE LAKE      SUNNY     58  54  86 SE5       30.10S
$$

...NORTHEAST IOWA...


CITY           SKY/WX    TMP DP  RH WIND       PRES   REMARKS
DECORAH        SUNNY     64  57  77 VRB3      30.13S
MASON CITY     SUNNY     60  57  89 S5        30.13R
CHARLES CITY   SUNNY     61  61 100 S7        30.14R
OELWEIN        SUNNY     61  57  88 SE6       30.15S
$$

...ELSEWHERE IN IOWA...


CITY           SKY/WX    TMP DP  RH WIND       PRES   REMARKS
DES MOINES     CLOUDY    64  56  75 S6        30.13R
IOWA CITY      SUNNY     60  59  96 CALM      30.16R
FORT DODGE     MOSUNNY   63  54  72 S6        30.12R
$$

...NORTHERN ILLINOIS...


CITY           SKY/WX    TMP DP  RH WIND       PRES   REMARKS
CHICAGO-OHARE  MOSUNNY   61  55  81 SW6       30.19R
CHICAGO-MIDWAY MOSUNNY   63  57  81 S7        30.19R
MOLINE         SUNNY     60  56  86 CALM      30.16R
ROCKFORD       MOSUNNY   62  57  83 CALM      30.19S
PEORIA         SUNNY     64  57  78 SW3       30.18R
$$

NOTE: "FAIR" INDICATES FEW OR NO CLOUDS BELOW 12,000 FEET WITH NO
SIGNIFICANT WEATHER AND/OR OBSTRUCTIONS TO VISIBILITY. WIND
SPEEDS ARE IN MILES-PER-HOUR.



USA.gov is the U.S. government's official web portal to all federal, state and local government web resources and services.